Flag for Germany Weather past 2 weeks in Bremerhaven, Bremen, Germany

45 °F

Scattered showers. Scattered clouds.

Feels Like: 37 °F
Forecast: 43 / 50 °F
Wind: 17 mph from West

Location: Nordholz

Current Time: Nov 28, 2015 at 2:27:37 PM

Latest Report: Nov 28, 2015 at 1:20 PM

Visibility: N/A

Pressure: 29.71 "Hg

Humidity: 71%

Dew point: 36 °F

Location of BremerhavenLocation

Historic Weather in Bremerhaven — Graph


Bremerhaven temperature yesterday

Maximum temperature yesterday: 43 °F (at 3:20 PM)
Minimum temperature yesterday: 37 °F (at 3:20 AM)
Average temperature yesterday: 40 °F

Past Weeks' High & Low Weather Summary

High55 °F (Nov 15, 8:50 AM)100% (Nov 14, 10:20 PM)30.15 "Hg (Nov 14, 10:20 PM)
Low30 °F (Nov 23, 7:20 AM)62% (Nov 13, 3:20 PM)29.27 "Hg (Nov 21, 3:20 AM)
Average44 °F89%29.72 "Hg
* Reported Nov 13 12:20 PM — Nov 28 12:20 PM, Bremerhaven, Weather by CustomWeather, © 2015

Note: Actual official high and low records may vary slightly from our data, if they occured in-between our weather recording intervals... More about our weather records


Bremerhaven weather history for previous 24 hours

Time TempWeatherWind HumidityBarometerVisibility
12:20 PM
Sat, Nov 28
45 °FScattered showers. Passing clouds.17 mph76%29.71 "HgN/A
11:20 AM45 °FScattered showers. Passing clouds.22 mph71%29.68 "HgN/A
10:20 AM45 °FScattered showers. Partly sunny.20 mph76%29.65 "HgN/A
9:20 AM43 °FRain showers. Mostly cloudy.22 mph87%29.65 "Hg5 mi
8:20 AM43 °FLight rain. Mostly cloudy.17 mph87%29.59 "HgN/A
7:20 AM43 °FRain. Fog.16 mph93%29.56 "Hg3 mi
6:20 AM39 °FDrizzle. Fog.16 mph100%29.53 "Hg2 mi
5:20 AM39 °FPassing clouds.18 mph93%29.53 "Hg2 mi
4:51 AM39 °FPassing clouds.16 mph93%29.53 "Hg1 mi
4:20 AM39 °FPassing clouds.16 mph87%29.53 "Hg2 mi
3:20 AM41 °FPassing clouds.15 mph81%29.53 "HgN/A
2:20 AM41 °FPassing clouds.16 mph81%29.56 "HgN/A
12:20 AM41 °FPassing clouds.17 mph87%29.65 "HgN/A
11:20 PM
Fri, Nov 27
41 °FPassing clouds.17 mph87%29.65 "HgN/A
10:20 PM41 °FPassing clouds.16 mph87%29.71 "HgN/A
9:20 PM41 °FPassing clouds.16 mph87%29.71 "HgN/A
8:20 PM43 °FMostly cloudy.17 mph81%29.74 "HgN/A
7:20 PM43 °FMostly cloudy.16 mph81%29.77 "HgN/A
6:20 PM43 °FMostly cloudy.15 mph81%29.80 "HgN/A
5:20 PM43 °FPassing clouds.13 mph81%29.80 "HgN/A
4:20 PM41 °FPassing clouds.13 mph87%29.83 "HgN/A
3:20 PM43 °FBroken clouds.12 mph87%29.86 "HgN/A
2:20 PM41 °FPartly sunny.14 mph87%29.89 "Hg6 mi
Weather by CustomWeather, © 2015

See weather overviewHow to use our weather pages